CW2969 Weather Reports


Display with metric or nautical units.
time (UTC)temp
F
wind
direction
speed
MPH
gust
MPH
rain 1hr
in
rain 24hr
in
rain mn
in
humidity
%
barometer
mb
20260508172008 76 128 0.0 3.0 0.00 0.00 0.00 73 1011.3
20260508171508 76 75 1.0 1.0 0.00 0.00 0.00 73 1011.3
20260508171008 76 67 0.0 1.0 0.00 0.00 0.00 73 1011.2
20260508170508 76 111 0.0 3.0 0.00 0.00 0.00 73 1011.2
20260508165507 76 128 2.0 3.0 0.00 0.00 0.00 72 1011.4
20260508165008 76 111 0.0 5.0 0.00 0.00 0.00 73 1011.3
20260508164507 76 347 3.0 5.0 0.00 0.00 0.00 73 1011.3
20260508164007 75 67 0.0 3.0 0.00 0.00 0.00 73 1011.3
20260508163007 74 131 1.0 3.0 0.00 0.00 0.00 74 1011.3
20260508162507 73 138 1.0 3.0 0.00 0.00 0.00 75 1011.4
20260508162007 73 109 1.0 2.0 0.00 0.00 0.00 76 1011.6
20260508161507 73 139 0.0 1.0 0.00 0.00 0.00 75 1011.7
20260508160507 72 90 0.0 0.0 0.00 0.00 0.00 76 1012.0
20260508160007 72 90 0.0 1.0 0.00 0.00 0.00 76 1012.1
20260508155507 71 90 0.0 1.0 0.00 0.00 0.00 76 1012.0
20260508155007 71 90 0.0 2.0 0.00 0.00 0.00 76 1011.9
20260508154507 71 327 2.0 2.0 0.00 0.00 0.00 77 1011.9
20260508153507 70 153 0.0 1.0 0.00 0.00 0.00 77 1012.3
20260508153007 69 118 0.0 4.0 0.00 0.00 0.00 77 1012.2
20260508152507 69 123 4.0 4.0 0.00 0.00 0.00 77 1012.2
20260508152007 69 319 2.0 3.0 0.00 0.00 0.00 77 1012.3
20260508151006 68 150 1.0 2.0 0.00 0.00 0.00 78 1012.4
20260508150506 68 146 0.0 2.0 0.00 0.00 0.00 78 1012.5
20260508150007 67 111 0.0 2.0 0.00 0.00 0.00 78 1012.5
20260508145506 67 111 1.0 2.0 0.00 0.00 0.00 78 1012.5
20260508145006 67 104 0.0 1.0 0.00 0.00 0.00 78 1012.4
20260508144506 67 104 0.0 2.0 0.00 0.00 0.00 78 1012.4
20260508144007 67 104 1.0 2.0 0.00 0.00 0.00 78 1012.5
20260508143507 66 88 0.0 3.0 0.00 0.00 0.00 78 1012.5
20260508143006 66 323 2.0 3.0 0.00 0.00 0.00 78 1012.4
20260508142506 66 67 1.0 3.0 0.00 0.00 0.00 78 1012.2
20260508142006 65 96 0.0 3.0 0.00 0.00 0.00 78 1012.3
20260508141506 65 143 3.0 3.0 0.00 0.00 0.00 78 1012.5
20260508141006 65 111 1.0 3.0 0.00 0.00 0.00 78 1012.6
20260508140506 65 111 1.0 4.0 0.00 0.00 0.00 78 1012.6
20260508140006 65 111 4.0 4.0 0.00 0.00 0.00 78 1012.7
20260508135506 65 94 0.0 2.0 0.00 0.00 0.00 77 1012.7
20260508135006 65 42 2.0 2.0 0.00 0.00 0.00 77 1012.7
20260508134506 65 190 1.0 2.0 0.00 0.00 0.00 77 1012.7
20260508134006 65 88 0.0 2.0 0.00 0.00 0.00 77 1012.7
20260508133506 65 101 0.0 1.0 0.00 0.00 0.00 77 1012.9
20260508133006 65 101 0.0 1.0 0.00 0.00 0.00 77 1013.0
20260508132506 65 101 0.0 1.0 0.00 0.00 0.00 77 1013.0
20260508132006 65 101 0.0 2.0 0.00 0.00 0.00 77 1013.0
20260508131536 65 96 0.0 2.0 0.00 0.00 0.00 77 1012.8
20260508130535 65 98 1.0 2.0 0.00 0.00 0.00 77 1012.6
20260508130036 65 85 1.0 2.0 0.00 0.00 0.00 77 1012.7
20260508125535 65 76 0.0 2.0 0.00 0.00 0.00 77 1012.7
20260508125035 65 45 0.0 1.0 0.00 0.00 0.00 77 1012.7
20260508124535 65 223 0.0 3.0 0.00 0.00 0.00 77 1012.8
20260508124035 65 278 0.0 3.0 0.00 0.00 0.00 77 1012.6
20260508123535 65 5 2.0 3.0 0.00 0.00 0.00 77 1012.6
20260508123035 65 87 0.0 2.0 0.00 0.00 0.00 77 1012.6
20260508122535 65 27 0.0 4.0 0.00 0.00 0.00 77 1012.6
20260508122034 65 351 1.0 4.0 0.00 0.00 0.00 77 1012.6
20260508121535 65 59 0.0 1.0 0.00 0.00 0.00 77 1012.8
20260508121035 65 77 0.0 2.0 0.00 0.00 0.00 76 1012.9
20260508120034 65 74 0.0 1.0 0.00 0.00 0.00 76 1013.1
20260508115534 65 74 0.0 1.0 0.00 0.00 0.00 76 1013.3
20260508114534 65 70 0.0 1.0 0.00 0.00 0.00 76 1013.2
20260508114034 65 70 0.0 0.0 0.00 0.00 0.00 76 1013.4
20260508113533 65 70 0.0 0.0 0.00 0.00 0.00 76 1013.4
20260508113034 65 70 0.0 1.0 0.00 0.00 0.00 76 1013.4
20260508112534 65 70 0.0 1.0 0.00 0.00 0.00 76 1013.4
20260508112033 65 70 0.0 0.0 0.00 0.00 0.00 76 1013.4
20260508111533 65 70 0.0 0.0 0.00 0.00 0.00 76 1013.4
20260508111033 65 9 0.0 3.0 0.00 0.00 0.00 76 1013.2
20260508110533 65 342 1.0 3.0 0.00 0.00 0.00 76 1013.2
20260508110033 65 339 0.0 2.0 0.00 0.00 0.00 76 1013.2
20260508105533 65 36 1.0 2.0 0.00 0.00 0.00 76 1013.0
20260508105033 65 46 1.0 2.0 0.00 0.00 0.00 76 1013.1
20260508103533 65 76 0.0 1.0 0.00 0.00 0.00 76 1013.3
20260508102533 65 360 1.0 3.0 0.00 0.00 0.00 76 1013.0
20260508102033 64 47 0.0 2.0 0.00 0.00 0.00 76 1013.1
20260508101532 64 64 0.0 1.0 0.00 0.00 0.00 76 1012.9
20260508101032 64 22 1.0 1.0 0.00 0.00 0.00 75 1012.9
20260508100533 64 50 1.0 3.0 0.00 0.00 0.00 76 1013.1
20260508095532 64 13 2.0 2.0 0.00 0.00 0.00 76 1013.1
20260508095033 64 50 1.0 2.0 0.00 0.00 0.00 76 1013.1
20260508094533 64 69 0.0 1.0 0.00 0.00 0.00 76 1013.1
20260508094032 64 53 1.0 3.0 0.00 0.00 0.00 75 1013.3
20260508093032 64 355 2.0 3.0 0.00 0.00 0.00 75 1013.5
20260508092032 64 74 1.0 2.0 0.00 0.00 0.00 75 1013.4
20260508091532 64 11 0.0 3.0 0.00 0.00 0.00 75 1013.3
20260508091032 64 360 1.0 3.0 0.00 0.00 0.00 75 1013.1
20260508090532 64 78 0.0 1.0 0.00 0.00 0.00 75 1013.0
20260508090032 64 57 0.0 2.0 0.00 0.00 0.00 75 1013.0
20260508085532 64 13 0.0 2.0 0.00 0.00 0.00 75 1012.9
20260508085032 64 86 0.0 1.0 0.00 0.00 0.00 75 1013.0
20260508084532 64 5 1.0 1.0 0.00 0.00 0.00 75 1013.1
20260508084032 64 355 0.0 3.0 0.00 0.00 0.00 75 1013.2
20260508083532 64 19 0.0 3.0 0.00 0.00 0.00 75 1013.2
20260508083032 64 34 1.0 2.0 0.00 0.00 0.00 75 1013.3
20260508082532 64 80 0.0 2.0 0.00 0.00 0.00 75 1013.4
20260508082032 64 80 0.0 1.0 0.00 0.00 0.00 75 1013.3
20260508081032 64 78 0.0 1.0 0.00 0.00 0.00 75 1013.1
20260508080532 64 90 0.0 0.0 0.00 0.00 0.00 75 1013.4
20260508080032 64 90 0.0 1.0 0.00 0.00 0.00 75 1013.4
20260508075531 64 90 0.0 2.0 0.00 0.00 0.00 75 1013.2
20260508075031 64 44 2.0 3.0 0.00 0.00 0.00 74 1013.1
20260508074531 64 17 0.0 3.0 0.00 0.00 0.00 74 1013.1
20260508074032 64 5 0.0 2.0 0.00 0.00 0.00 75 1013.1
20260508073531 64 5 0.0 2.0 0.00 0.00 0.00 74 1013.2
20260508072031 64 96 0.0 4.0 0.00 0.00 0.00 74 1012.9
20260508071531 65 13 3.0 4.0 0.00 0.00 0.00 74 1013.1
20260508071032 65 68 0.0 3.0 0.00 0.00 0.00 74 1013.3
20260508070532 65 72 1.0 2.0 0.00 0.00 0.00 74 1013.2
20260508070032 65 95 1.0 2.0 0.00 0.00 0.00 74 1013.2
20260508065031 65 113 0.0 2.0 0.00 0.00 0.00 74 1013.6
20260508064531 65 84 1.0 2.0 0.00 0.00 0.00 74 1013.7
20260508064031 65 96 0.0 3.0 0.00 0.00 0.00 74 1013.9
20260508063031 65 355 1.0 3.0 0.00 0.00 0.00 74 1014.0
20260508061531 65 102 0.0 0.0 0.00 0.00 0.00 74 1014.1
20260508060531 64 102 0.0 0.0 0.00 0.00 0.00 74 1014.2
20260508060031 64 91 0.0 1.0 0.00 0.00 0.00 74 1013.9
20260508055531 64 110 0.0 1.0 0.00 0.00 0.00 74 1013.8
20260508055031 64 38 0.0 1.0 0.00 0.00 0.00 74 1014.0
20260508054531 64 93 1.0 2.0 0.00 0.00 0.00 74 1014.3
20260508054031 64 329 1.0 4.0 0.00 0.00 0.00 74 1014.3
20260508053530 64 360 2.0 4.0 0.00 0.00 0.00 74 1014.3
20260508053030 64 9 0.0 2.0 0.00 0.00 0.00 74 1014.1
20260508052530 64 27 1.0 2.0 0.00 0.00 0.00 74 1013.7
20260508052030 64 342 1.0 4.0 0.00 0.00 0.00 74 1014.1
20260508051530 64 78 2.0 4.0 0.00 0.00 0.00 73 1013.5
20260508051030 64 46 1.0 4.0 0.00 0.00 0.00 74 1013.5
20260508050530 64 103 3.0 3.0 0.00 0.00 0.00 74 1014.1
20260508050030 64 313 0.0 3.0 0.00 0.00 0.00 74 1014.3
20260508045530 64 34 0.0 4.0 0.00 0.00 0.00 74 1014.2
20260508045030 64 19 1.0 4.0 0.00 0.00 0.00 74 1014.5
20260508044530 64 94 2.0 3.0 0.00 0.00 0.00 74 1013.7
20260508044030 64 107 2.0 3.0 0.00 0.00 0.00 74 1013.2
20260508043530 64 56 0.0 1.0 0.00 0.00 0.00 74 1013.6
20260508043030 64 93 0.0 1.0 0.00 0.00 0.00 74 1013.5
20260508042529 64 109 0.0 1.0 0.00 0.00 0.00 74 1013.6
20260508042030 64 77 0.0 1.0 0.00 0.00 0.00 73 1013.8
20260508041529 65 77 1.0 1.0 0.00 0.00 0.00 73 1013.7
20260508041029 65 52 0.0 1.0 0.00 0.00 0.00 73 1014.1
20260508040529 65 71 0.0 1.0 0.00 0.00 0.00 73 1014.2
20260508040029 65 360 0.0 1.0 0.00 0.00 0.00 73 1014.4
20260508035529 65 72 0.0 1.0 0.00 0.00 0.00 73 1014.3
20260508035029 64 70 0.0 1.0 0.00 0.00 0.00 74 1014.3
20260508034530 64 65 0.0 1.0 0.00 0.00 0.00 74 1014.5
20260508034029 64 20 0.0 1.0 0.00 0.00 0.00 73 1014.7
20260508033529 64 338 0.0 2.0 0.00 0.00 0.00 74 1014.8
20260508033029 64 338 0.0 2.0 0.00 0.00 0.00 73 1014.7
20260508032029 64 342 1.0 5.0 0.00 0.00 0.00 73 1014.8
20260508031529 64 153 1.0 5.0 0.00 0.00 0.00 73 1014.9
20260508031029 64 330 2.0 3.0 0.00 0.00 0.00 73 1014.7
20260508030529 64 56 0.0 0.0 0.00 0.00 0.00 73 1014.4
20260508030030 65 56 0.0 2.0 0.00 0.00 0.00 73 1014.0
20260508025029 65 24 0.0 1.0 0.00 0.00 0.00 72 1014.0
20260508024529 65 24 0.0 2.0 0.00 0.00 0.00 72 1014.1
20260508024028 65 111 2.0 2.0 0.00 0.00 0.00 72 1013.9
20260508023529 65 111 1.0 2.0 0.00 0.00 0.00 72 1013.3
20260508022528 65 101 1.0 2.0 0.00 0.00 0.00 72 1012.9
20260508022029 65 74 1.0 2.0 0.00 0.00 0.00 72 1012.9
20260508021528 65 345 1.0 2.0 0.00 0.00 0.00 71 1012.9
20260508020028 65 131 0.0 2.0 0.00 0.00 0.00 70 1012.5
20260508015527 65 90 1.0 3.0 0.00 0.00 0.00 70 1012.4
20260508015027 66 111 2.0 4.0 0.00 0.00 0.00 70 1012.3
20260508014527 66 105 1.0 4.0 0.00 0.00 0.00 70 1012.5
20260508014027 66 146 2.0 6.0 0.00 0.00 0.00 69 1012.9
20260508012527 66 78 0.0 3.0 0.00 0.00 0.00 69 1012.9
20260508010527 66 115 1.0 3.0 0.00 0.00 0.00 68 1012.6
20260508010027 67 94 1.0 3.0 0.00 0.00 0.00 68 1012.8
20260508005026 67 265 3.0 7.0 0.00 0.00 0.00 67 1012.6
20260508004026 67 93 0.0 2.0 0.00 0.00 0.00 66 1013.2
20260508003526 67 58 0.0 2.0 0.00 0.00 0.00 66 1013.4
20260508003026 68 105 0.0 2.0 0.00 0.00 0.00 66 1013.5
20260508002526 68 88 2.0 2.0 0.00 0.00 0.00 66 1013.4
20260508002026 68 95 0.0 6.0 0.00 0.00 0.00 66 1013.6
20260508001526 68 95 3.0 6.0 0.00 0.00 0.00 65 1013.8
20260508000526 69 83 1.0 3.0 0.00 0.00 0.00 65 1013.9
20260507235526 69 100 1.0 2.0 0.00 0.00 0.00 65 1014.1
20260507235026 69 11 0.0 1.0 0.00 0.00 0.00 65 1014.0
20260507234026 70 112 0.0 4.0 0.00 0.00 0.00 64 1014.3
20260507233526 70 11 2.0 4.0 0.00 0.00 0.00 64 1014.4
20260507233026 70 346 0.0 2.0 0.00 0.00 0.00 65 1014.4
20260507232526 70 198 0.0 6.0 0.00 0.00 0.00 65 1014.3
20260507232025 70 71 2.0 6.0 0.00 0.00 0.00 65 1014.0
20260507231526 70 107 0.0 3.0 0.00 0.00 0.00 65 1014.0
20260507230525 70 93 0.0 4.0 0.00 0.00 0.00 64 1014.4
20260507230025 69 188 2.0 3.0 0.00 0.00 0.00 65 1014.2
20260507225525 69 314 1.0 4.0 0.00 0.00 0.00 65 1014.2
20260507225025 69 78 2.0 4.0 0.00 0.00 0.00 65 1014.4
20260507224525 69 163 1.0 4.0 0.00 0.00 0.00 65 1014.5
20260507224025 69 130 1.0 7.0 0.00 0.00 0.00 65 1014.4
20260507223525 69 123 4.0 7.0 0.00 0.00 0.00 66 1014.6
20260507223025 69 111 0.0 3.0 0.00 0.00 0.00 66 1014.8
20260507222525 69 133 0.0 4.0 0.00 0.00 0.00 67 1014.9
20260507221525 69 113 0.0 4.0 0.00 0.00 0.00 67 1014.8
20260507221025 69 78 1.0 4.0 0.00 0.00 0.00 67 1014.7
20260507220525 68 118 1.0 3.0 0.00 0.00 0.00 66 1014.7
20260507220024 68 23 0.0 9.0 0.00 0.00 0.00 67 1014.8
20260507215524 68 5 9.0 9.0 0.00 0.00 0.00 67 1014.8
20260507214524 68 344 2.0 5.0 0.00 0.00 0.00 67 1014.4
20260507214024 68 12 1.0 4.0 0.00 0.00 0.00 67 1014.5
20260507213525 68 360 2.0 4.0 0.00 0.00 0.00 68 1014.6
20260507212524 68 355 2.0 3.0 0.00 0.00 0.00 68 1014.6
20260507212024 68 119 2.0 6.0 0.00 0.00 0.00 68 1014.9
20260507211524 68 89 4.0 6.0 0.00 0.00 0.00 68 1014.8
20260507211024 68 118 1.0 5.0 0.00 0.00 0.00 68 1014.9
20260507210524 68 88 1.0 6.0 0.00 0.00 0.00 68 1014.8
20260507210024 68 55 6.0 7.0 0.00 0.00 0.00 69 1014.6
20260507205524 68 20 4.0 7.0 0.00 0.00 0.00 69 1014.6
20260507205024 68 105 0.0 8.0 0.00 0.00 0.00 69 1014.5
20260507204524 68 336 5.0 8.0 0.00 0.00 0.00 70 1014.6
20260507204024 67 107 3.0 6.0 0.00 0.00 0.00 70 1014.8
20260507203524 67 93 1.0 7.0 0.00 0.00 0.00 71 1015.1
20260507203023 67 178 2.0 8.0 0.00 0.00 0.00 71 1015.1
20260507202524 67 12 3.0 8.0 0.00 0.00 0.00 71 1015.1
20260507201523 67 121 1.0 6.0 0.00 0.00 0.00 71 1015.5
20260507200523 67 41 6.0 10.0 0.00 0.00 0.00 73 1015.1
20260507200023 67 338 8.0 8.0 0.00 0.00 0.00 73 1015.3
20260507195524 66 55 2.0 8.0 0.00 0.00 0.00 74 1015.3
20260507195023 66 283 1.0 8.0 0.00 0.00 0.00 74 1015.5
20260507193523 65 113 3.0 6.0 0.00 0.00 0.00 75 1015.7
20260507193023 65 340 3.0 6.0 0.00 0.00 0.00 76 1015.5
20260507192523 65 138 2.0 5.0 0.00 0.00 0.00 76 1015.3
20260507192023 65 348 4.0 4.0 0.00 0.00 0.00 75 1015.6
20260507191523 65 116 2.0 3.0 0.00 0.00 0.00 75 1015.9
20260507191023 65 95 1.0 3.0 0.00 0.00 0.00 74 1015.8
20260507190523 66 59 1.0 2.0 0.00 0.00 0.00 73 1015.9
20260507190023 66 348 1.0 3.0 0.00 0.00 0.00 74 1016.2
20260507185523 66 126 1.0 5.0 0.00 0.00 0.00 73 1016.2
20260507185023 66 337 3.0 5.0 0.00 0.00 0.00 74 1016.3
20260507184523 66 5 3.0 4.0 0.00 0.00 0.00 74 1016.3
20260507184023 66 53 1.0 8.0 0.00 0.00 0.00 74 1016.4
20260507183023 66 92 1.0 4.0 0.00 0.00 0.00 75 1016.6
20260507182523 65 151 0.0 8.0 0.00 0.00 0.00 75 1016.8
20260507182022 65 148 2.0 8.0 0.00 0.00 0.00 75 1016.8
20260507181523 65 155 2.0 5.0 0.00 0.00 0.00 75 1016.5
20260507180523 64 175 1.0 3.0 0.00 0.00 0.00 76 1016.0
20260507180022 64 118 1.0 7.0 0.00 0.00 0.00 76 1015.8
20260507175523 64 303 2.0 7.0 0.00 0.00 0.00 76 1015.8
20260507174522 63 15 2.0 3.0 0.00 0.00 0.00 77 1016.3
20260507174022 63 151 1.0 6.0 0.00 0.00 0.00 78 1016.3
20260507173522 62 107 2.0 6.0 0.00 0.00 0.00 78 1016.1
20260507173022 62 330 3.0 5.0 0.00 0.00 0.00 78 1016.3
20260507172522 62 298 5.0 5.0 0.00 0.00 0.00 79 1016.2